Dewpoint
6 7 9 8 9 9 10 10 13 12 12 6 9 10 11 12 11 12 11 11 10 8 1 1 -0 6 6 9 8 11 10 11 9
9 6 8 9 10 8 9 11 12 12 11 8 9 10 12 11 11 11 11 11 9 7 6 4 1 3 8 11 10 10 9 9 8
8 7 8 10 11 9 10 10 12 11 9 4 8 9 9 10 10 10 9 11 9 11 10 10 9 10 10 9 10 10 8 9 8
9 10 9 9 10 8 9 9 10 10 7 1 6 8 9 10 10 10 10 8 5 10 11 8 10 10 10 10 10 10 9 10 9
10 9 11 10 11 9 3 -0 1 1 -1 -2 0 4 6 8 8 8 7 5 9 5 8 9 8 10 9 10 9 7 7 9 9
11 12 10 11 12 11 7 2 1 -2 -6 -9 -8 -6 -6 7 8 7 10 8 6 8 11 10 9 9 8 8 8 8 10 8 8
7 8 12 12 12 12 8 5 0 -4 -3 -4 -3 -5 -2 9 10 10 10 10 9 7 8 7 8 7 8 9 9 10 8 9 8
9 8 11 12 12 12 8 7 3 2 8 6 3 8 9 10 11 11 10 11 11 10 8 8 8 7 7 9 9 8 8 8 8
10 10 11 12 12 11 8 7 3 9 10 9 6 9 10 10 11 11 11 11 11 10 9 10 9 8 7 6 9 8 8 8 8
11 11 11 12 11 11 8 8 10 9 11 11 8 10 11 10 10 10 10 9 11 10 9 9 10 9 7 8 7 7 7 8 8
12 11 12 12 12 11 9 8 8 9 10 11 10 11 9 10 10 10 9 8 7 9 10 9 10 9 8 7 7 6 7 8 8
11 12 12 10 11 11 10 10 10 9 11 10 10 9 9 10 10 9 7 6 6 6 7 10 10 10 10 9 8 6 4 4 6
10 11 11 11 11 11 11 10 10 11 10 10 9 10 8 10 9 8 6 5 5 5 5 7 10 10 9 9 8 6 6 5 -1
10 10 10 11 11 10 11 10 10 11 10 9 10 9 9 9 8 6 7 6 6 5 5 4 7 8 10 9 9 8 6 5 5
9 9 11 10 10 11 11 9 10 10 8 9 10 9 9 9 8 6 7 7 6 5 5 4 4 7 8 9 9 10 9 6 6
9 9 10 10 10 10 11 10 10 10 9 9 10 9 9 9 9 8 7 7 6 6 5 4 4 3 6 7 8 9 9 8 7
6 6 8 9 10 10 10 11 10 9 9 8 8 10 10 10 9 9 9 8 7 6 5 5 4 4 3 5 6 7 7 9 9
7 6 8 8 8 9 9 9 10 10 10 9 9 9 9 9 9 9 9 8 7 7 6 5 5 5 4 4 5 3 4 6 9
6 7 7 8 8 9 9 10 9 10 10 10 10 8 8 8 9 9 9 8 8 7 7 6 6 5 4 4 4 4 4 5 7
5 6 6 7 7 6 8 9 9 9 10 9 9 9 8 8 8 8 8 9 9 8 8 7 6 5 5 5 5 4 4 4 4
Wind_Speed
7 7 7 7 8 9 10 10 10 11 12 15 16 17 14 11 8 8 6 6 7 5 5 5 5 8 12 16 19 18 15 16 16
10 9 10 9 9 9 11 11 11 12 11 14 17 17 14 10 7 6 5 4 3 5 5 4 5 13 18 15 14 11 10 12 17
11 11 12 12 11 10 12 12 11 11 12 13 16 17 13 9 7 6 5 6 3 9 8 10 9 13 14 13 13 12 14 16 13
13 12 14 15 15 12 13 14 12 11 10 11 14 16 14 12 8 8 9 8 6 8 14 13 15 14 15 12 13 12 14 17 13
17 15 16 17 19 16 14 15 15 13 12 12 14 16 16 15 14 15 10 8 10 6 13 15 13 13 13 12 11 10 19 15 13
17 18 18 20 21 22 17 15 13 13 13 13 14 15 15 14 15 15 12 8 11 13 13 15 12 12 11 14 13 14 15 14 10
19 19 21 22 24 24 20 16 13 14 14 13 14 14 17 10 15 16 13 12 14 13 14 13 12 8 11 13 14 15 12 12 10
20 20 22 24 27 27 26 25 19 15 13 13 13 15 15 15 17 16 16 15 17 14 13 14 13 8 10 15 16 14 13 10 8
23 22 23 26 26 28 28 24 21 18 16 10 13 15 13 19 19 15 19 15 18 16 13 17 14 13 8 12 14 14 13 12 11
26 26 24 25 25 29 28 29 25 20 20 19 13 17 17 17 18 15 16 13 22 19 14 19 17 15 13 9 9 13 13 13 14
25 25 28 27 26 27 27 25 23 27 26 24 21 22 24 21 17 15 15 14 10 13 15 18 21 15 15 12 9 11 16 13 14
25 24 27 28 26 26 29 25 26 25 24 26 25 27 24 25 25 23 20 18 14 11 14 16 21 19 15 12 11 11 13 15 14
22 26 27 29 29 30 32 30 29 29 30 30 29 28 26 29 29 24 21 19 18 15 12 19 18 20 19 15 13 13 15 11 13
20 24 25 27 28 29 33 30 32 34 33 31 33 34 30 34 28 25 25 23 23 18 16 15 23 20 21 20 17 14 13 12 8
22 23 23 24 28 32 35 33 35 36 36 35 34 35 38 36 33 30 28 25 23 19 18 18 22 24 21 21 21 20 17 14 13
18 24 23 23 26 32 35 38 42 40 38 39 35 33 34 36 33 31 30 29 27 23 21 21 17 24 27 25 23 22 22 21 17
21 24 25 23 25 32 38 40 43 41 42 41 32 24 33 36 34 32 33 31 29 28 25 23 21 20 24 26 26 25 23 25 25
18 20 22 26 27 30 31 35 40 46 43 40 26 13 15 26 36 37 36 35 33 32 29 26 24 25 24 23 26 26 29 26 28
13 15 18 21 23 25 29 29 28 42 42 40 39 27 13 16 14 37 40 38 37 35 33 31 29 29 28 25 23 23 25 27 29
5 1 7 9 14 7 17 33 31 23 39 40 37 39 31 22 14 15 28 38 38 36 36 35 32 31 31 30 27 25 25 24 27
Wind_Direction
231 216 208 199 179 185 182 171 152 145 145 143 146 142 134 129 156 160 175 158 144 147 122 115 126 127 115 105 120 129 123 117 112
225 222 220 206 192 189 185 173 162 158 158 150 150 151 143 150 161 176 198 173 141 163 139 136 116 119 114 127 140 142 136 125 132
222 219 223 214 202 200 199 191 176 175 179 158 162 169 157 142 194 206 222 240 197 140 130 123 127 122 138 150 142 133 124 121 141
227 226 221 221 208 210 209 203 195 185 189 174 175 175 158 160 184 208 214 242 224 162 159 157 149 154 155 155 151 148 144 140 142
227 227 226 224 217 212 216 212 212 211 207 198 193 191 184 173 196 218 237 206 167 177 158 157 168 168 171 159 148 156 152 160 159
237 225 226 224 220 217 220 218 214 218 213 205 203 201 191 176 208 210 210 182 154 146 154 162 173 169 177 143 146 152 150 160 165
239 237 226 223 218 216 215 212 213 215 212 196 195 189 174 184 224 206 201 195 171 161 178 195 207 209 157 161 165 164 161 170 167
240 231 225 221 220 213 213 215 195 213 213 205 189 170 179 206 219 208 198 201 190 178 183 194 192 184 169 173 186 185 186 191 181
236 233 223 219 222 222 217 210 203 199 212 220 206 183 203 223 227 209 201 206 197 188 182 196 196 189 191 191 192 197 205 212 175
236 234 226 222 216 222 222 228 217 200 199 218 211 201 201 220 217 201 203 209 206 192 197 195 202 203 188 212 231 224 222 221 192
241 235 230 222 221 219 217 214 221 211 198 203 214 214 224 211 211 204 212 219 213 208 206 199 204 206 204 216 250 244 214 214 192
246 240 225 234 229 221 219 226 211 201 209 214 213 218 215 205 212 222 233 241 239 233 225 214 207 202 210 218 232 266 250 224 200
255 247 243 240 232 224 218 216 204 208 209 211 212 219 217 219 222 221 232 233 246 241 243 231 217 213 212 221 233 234 256 261 240
264 256 250 247 233 234 223 216 213 211 211 211 216 217 214 221 228 220 225 230 241 243 253 264 229 221 222 221 222 228 230 249 258
252 257 258 251 243 231 229 229 220 218 214 212 219 223 222 224 229 219 220 222 233 236 251 260 245 229 223 222 222 221 233 237 234
261 249 262 257 252 242 234 228 223 222 218 213 218 225 223 224 226 222 223 224 227 237 244 253 252 243 235 231 228 227 232 246 243
267 264 258 258 258 255 245 233 217 229 227 213 216 215 217 223 224 225 225 225 232 235 239 243 239 249 246 241 235 233 235 233 240
277 278 271 262 264 271 264 249 218 224 222 218 207 199 218 223 231 224 225 230 232 236 238 238 240 245 252 250 243 241 242 240 233
281 281 271 275 268 259 251 246 243 246 228 216 216 215 210 211 211 231 230 232 233 236 236 236 238 240 246 249 247 247 243 241 239
59 294 270 262 263 273 249 247 250 221 212 221 219 221 219 216 205 207 222 231 235 239 243 243 243 240 241 249 254 251 247 247 249
Height
1543 1544 1545 1546 1547 1548 1549 1550 1550 1551 1552 1553 1555 1556 1558 1560 1562 1561 1562 1563 1563 1564 1565 1566 1566 1566 1566 1567 1569 1571 1572 1573 1574
1541 1543 1544 1546 1547 1548 1549 1550 1551 1552 1553 1554 1556 1557 1559 1561 1562 1563 1563 1564 1564 1564 1565 1566 1566 1567 1568 1569 1570 1571 1573 1574 1575
1539 1541 1543 1545 1547 1548 1549 1550 1551 1552 1553 1554 1556 1557 1559 1562 1562 1563 1564 1565 1565 1565 1566 1567 1568 1569 1570 1571 1572 1573 1574 1575 1576
1538 1539 1541 1543 1545 1547 1548 1550 1550 1551 1552 1554 1556 1558 1559 1561 1563 1562 1564 1564 1564 1565 1565 1567 1569 1570 1571 1572 1572 1573 1575 1576 1577
1535 1537 1539 1542 1543 1546 1548 1548 1550 1550 1551 1553 1555 1557 1559 1561 1561 1562 1563 1563 1564 1564 1565 1567 1569 1570 1571 1572 1573 1574 1575 1576 1577
1532 1533 1535 1538 1541 1544 1546 1548 1549 1550 1550 1551 1552 1555 1557 1559 1559 1561 1562 1563 1563 1564 1565 1567 1569 1570 1571 1572 1574 1575 1575 1577 1577
1529 1531 1532 1534 1537 1540 1542 1545 1547 1549 1550 1549 1550 1552 1556 1557 1558 1559 1560 1562 1562 1563 1565 1566 1568 1569 1571 1573 1574 1575 1577 1577 1578
1525 1526 1528 1530 1532 1535 1538 1541 1541 1547 1550 1549 1549 1551 1554 1555 1555 1557 1558 1559 1561 1562 1564 1565 1566 1568 1570 1573 1574 1575 1576 1577 1577
1521 1522 1523 1525 1528 1531 1534 1537 1539 1543 1547 1548 1549 1549 1550 1553 1553 1554 1556 1557 1559 1561 1562 1563 1565 1566 1568 1571 1573 1575 1576 1576 1576
1517 1518 1520 1521 1522 1526 1530 1534 1537 1540 1543 1544 1547 1548 1548 1549 1552 1552 1554 1555 1556 1558 1559 1562 1563 1565 1566 1569 1571 1573 1575 1574 1574
1515 1516 1518 1519 1520 1521 1524 1528 1531 1532 1537 1540 1543 1545 1546 1546 1547 1549 1551 1553 1554 1556 1557 1559 1560 1562 1564 1566 1568 1569 1571 1571 1573
1513 1513 1513 1512 1515 1516 1520 1523 1527 1529 1533 1536 1539 1540 1543 1543 1543 1545 1548 1550 1551 1554 1555 1557 1558 1559 1561 1563 1564 1566 1566 1568 1570
1509 1510 1512 1513 1514 1514 1517 1519 1521 1525 1528 1531 1534 1536 1539 1539 1540 1541 1543 1546 1548 1550 1552 1554 1555 1557 1558 1560 1561 1563 1564 1566 1566
1504 1505 1507 1509 1509 1508 1511 1515 1517 1520 1523 1525 1528 1531 1533 1534 1536 1537 1538 1541 1543 1546 1548 1550 1551 1553 1555 1557 1559 1560 1561 1563 1564
1500 1501 1502 1504 1505 1506 1509 1509 1513 1514 1518 1520 1523 1525 1528 1529 1530 1532 1534 1537 1538 1540 1542 1545 1546 1549 1551 1554 1556 1557 1558 1559 1561
1497 1497 1498 1499 1500 1502 1502 1504 1505 1508 1512 1516 1516 1518 1521 1522 1524 1527 1529 1531 1534 1536 1537 1539 1541 1544 1547 1549 1551 1553 1554 1556 1557
1493 1494 1494 1494 1495 1495 1495 1494 1494 1500 1504 1504 1509 1511 1514 1515 1517 1521 1524 1526 1527 1530 1531 1533 1536 1539 1541 1544 1547 1549 1551 1552 1553
1489 1489 1489 1489 1489 1490 1491 1489 1481 1488 1495 1497 1500 1502 1503 1508 1510 1513 1517 1520 1522 1524 1526 1528 1530 1533 1536 1539 1541 1543 1545 1548 1549
1489 1486 1485 1484 1484 1484 1484 1480 1481 1487 1487 1488 1488 1494 1497 1501 1504 1507 1510 1513 1514 1517 1520 1523 1525 1528 1530 1533 1536 1538 1540 1542 1544
1485 1483 1483 1482 1482 1481 1479 1479 1479 1471 1472 1481 1483 1488 1491 1496 1497 1498 1502 1506 1507 1511 1514 1516 1519 1523 1525 1527 1530 1532 1534 1536 1538